Regional Weather Roundup
Issued by NWS

Home | Current Version | Previous Version | Graphics & Text | Print | Product List | Glossary On
Versions: 1 2 3 4 5 6 7 8 9 10 11 12 13 14 15 16 17 18 19 20 21 22 23 24 25 26 27 28 29 30 31 32 33 34 35 36 37 38 39 40 41 42 43 44 45 46 47 48 49 50
000
ASUS43 KLOT 300621
RWRIL

ILLINOIS REGIONAL WEATHER ROUNDUP
NATIONAL WEATHER SERVICE CHICAGO/ROMEOVILLE IL
100 AM CDT TUE JUN 30 2015

NOTE: "FAIR" INDICATES FEW OR NO CLOUDS BELOW 12,000 FEET WITH NO
SIGNIFICANT WEATHER AND/OR OBSTRUCTIONS TO VISIBILITY.

* THESE STATIONS ARE NOT UNDER NWS QUALITY CONTROL. THEY ALSO MAY NOT
  REPORT WEATHER SUCH AS PRECIPITATION OR FOG.

ILZ001-002-007-009-015-016-024-300700-
NORTHWEST ILLINOIS

CITY           SKY/WX    TMP DP  RH WIND       PRES   REMARKS
MOLINE         CLOUDY    66  63  90 SW5       29.81F
6HR MIN TEMP:  66; 6HR MAX TEMP:  78; 6HR PCP:  0.73;

STERLING*      CLOUDY    64  63  94 NW5       29.81R
SAVANNA*       CLOUDY    65  62  90 W3        29.81S
$$

ILZ003-004-008-010-011-017-018-300700-
NORTH CENTRAL ILLINOIS

CITY           SKY/WX    TMP DP  RH WIND       PRES   REMARKS
ROCKFORD       MOCLDY    64  61  90 W5        29.81R
6HR MIN TEMP:  64; 6HR MAX TEMP:  70; 6HR PCP:  0.01;

FREEPORT*      MOCLDY    60  60  99 CALM      29.83R FOG
ROCHELLE*      CLOUDY    62  60  94 CALM      29.80S
DE KALB*       LGT RAIN  62  60  93 W5        29.80S
PERU*          CLOUDY    65  62  90 NW5       29.80F
$$

ILZ005-006-012>014-019>023-300700-
NORTHEAST ILLINOIS

CITY           SKY/WX    TMP DP  RH WIND       PRES   REMARKS
CHICAGO-OHARE  HVY RAIN  66  64  93 S13       29.78S FOG
6HR MIN TEMP:  64; 6HR MAX TEMP:  70; 6HR PCP:  0.05;

CHICAGO-MIDWAY CLOUDY    67  65  93 S7        29.78F FOG
6HR MIN TEMP:  67; 6HR MAX TEMP:  73;

AURORA         MOCLDY    66  60  81 SW6       29.79S
6HR MIN TEMP:  64; 6HR MAX TEMP:  71;

LANSING*       CLEAR     63  61  93 S3        29.80F FOG
JOLIET*        MOCLDY    67  66  99 W5        29.80S FOG
WAUKEGAN       MOCLDY    60  60 100 CALM      29.77S FOG
6HR MIN TEMP:  59; 6HR MAX TEMP:  67;

DUPAGE AIRPORT LGT RAIN  66  64  93 S10       29.77S FOG
6HR MIN TEMP:  62; 6HR MAX TEMP:  70; 6HR PCP:  0.06;

KANKAKEE*      PTCLDY    64  64  97 S3        29.80F
WHEELING       LGT RAIN  66  64  93 S5        29.78F
6HR MIN TEMP:  63; 6HR MAX TEMP:  71; 6HR PCP:  0.01;

MORRIS*        LGT RAIN  65  62  90 W3        29.76F
ROMEOVILLE*    MOCLDY    64  64 100 SW5       29.79F FOG
NORTHERLY ISL    N/A     66  63  90 S6          N/A
$$

LMZ740>746-300700-
SOUTHERN LAKE MICHIGAN

STATION/POSITION SKY/WX   TEMP    WIND        PRES    VSBY  WAVE
                          AIR SEA DIR/SP/G                  HT/PER
                          (F)     (DEG/KT/KT) (MB)    (MI)  (FT/S)
HARRISON CRIB              65     160/  9/ 10   N/A
BURNHAM HARBOR             66     190/  6/  7   N/A
CALUMET HARBOR             67     180/  4/  5   N/A
BURNS HARBOR               65     170/  7/ 13 1009.8S
MICHIGAN CITY              64     130/  8/ 10   N/A
MICHIGAN CITY 6N           64 65  180/ 10/ 12   N/A           1
ST. JOSEPH                 63 64                N/A           1/ 2
$$

ILZ025>027-034>036-040-047-049-050-058-095>099-300700-
WEST-CENTRAL ILLINOIS

CITY           SKY/WX    TMP DP  RH WIND       PRES   REMARKS
QUINCY         CLEAR     69  65  86 W6        29.86F
GALESBURG*     MOCLDY    64  61  88 E3        29.84R
MACOMB*        PTCLDY    67  66  97 W6        29.85F
JACKSONVILLE*  CLEAR     70  68  93 SW7       29.85F
PITTSFIELD*    CLEAR     68  65  89 CALM      29.88F
$$

ILZ028>032-037-038-041>044-048-051>054-059>061-300700-
CENTRAL ILLINOIS

CITY           SKY/WX    TMP DP  RH WIND       PRES   REMARKS
PONTIAC        PTCLDY    67  66  97 SW5       29.79F
BLOOMINGTON    TSTM      69  67  93 S7        29.81F FOG
DECATUR        MOCLDY    68  65  90 SW7       29.84F
PEORIA         CLOUDY    67  63  87 W3        29.81F
6HR MIN TEMP:  67; 6HR MAX TEMP:  79; 6HR PCP:  0.03;

LACON*         CLOUDY    66  63  89 SW5       29.78F
LINCOLN*       MOCLDY    71  66  86 W3        29.84S
SPRINGFIELD    PTCLDY    68  65  90 SW3       29.84F
6HR MIN TEMP:  68; 6HR MAX TEMP:  78;

TAYLORVILLE    PTCLDY    64  64 100 SW5       29.86R
$$

ILZ033-039-045-046-055>057-062-063-300700-
EAST-CENTRAL ILLINOIS

CITY           SKY/WX    TMP DP  RH WIND       PRES   REMARKS
CHAMPAIGN      PTCLDY    67  64  90 SW7       29.84S
DANVILLE*      CLEAR     63  63 100 CALM      29.81F FOG
RANTOUL*       TSTM      68  62  82 N10       29.85R
MATTOON        CLEAR     67  64  90 SW7       29.85S
PARIS*         CLEAR     66  64  93 SW6       29.85F
$$

ILZ079-100>102-300700-
SOUTHWEST ILLINOIS

CITY           SKY/WX    TMP DP  RH WIND       PRES   REMARKS
ALTON          PTCLDY    68  68 100 CALM      29.88S
BELLEVILLE     PTCLDY    68  67  99 S5        29.87S
CAHOKIA*       CLEAR     69  67  93 CALM      29.88R
SPARTA*        PTCLDY    71  68  90 N3        29.90R
$$

ILZ064>066-069>071-074>076-080>082-084>086-088>090-092>094-300700-
SOUTH-CENTRAL ILLINOIS

CITY           SKY/WX    TMP DP  RH WIND       PRES   REMARKS
CARBONDALE     CLOUDY    72  69  90 NW5       29.88R
6HR MIN TEMP:  71; 6HR MAX TEMP:  82;

CAIRO*         PTCLDY    72  67  85 CALM      29.89R
EFFINGHAM*     CLEAR     66  64  91 CALM      29.87F
MARION         MOCLDY    70  68  94 S3        29.89S
MT. VERNON     MOCLDY    70  64  83 SW5       29.89R
CENTRALIA*     MOCLDY    68  65  89 CALM      29.88S
SALEM*         PTCLDY    69  66  88 CALM      29.88S
METROPOLIS*    CLEAR     69  69 100 CALM      29.90R
$$

ILZ067-068-072-073-078-083-087-091-300700-
SOUTHEAST ILLINOIS

CITY           SKY/WX    TMP DP  RH WIND       PRES   REMARKS
LAWRENCEVILLE  CLEAR     67  65  93 CALM      29.86S
FLORA*         CLEAR     66  65  94 CALM      29.87S
FAIRFIELD*     MOCLDY    68  67  95 CALM      29.86S
HARRISBURG*    PTCLDY    68  68 100 CALM      29.89S FOG
ROBINSON*      CLEAR     65  64  96 SW5       29.86S
CARMI*         PTCLDY    67  62  83 CALM      29.87S
$$

ABBREVIATIONS USED IN REMARKS
   TC - TEMPERATURE IN CELSIUS
  WCI - WIND CHILL INDEX
   HX - HEAT INDEX
  VSB - VISIBILITY
$$



USA.gov is the U.S. government's official web portal to all federal, state and local government web resources and services.